Weather History for Jasper, AL

Change the Weather History Date:

Sunday, October 28, 2012

  Actual Average Record
Temperature  
Mean Temperature 54 °F -  
Max Temperature 64 °F 69 °F 82 °F (1991)
Min Temperature 44 °F 43 °F 28 °F (1961)
Degree Days  
Heating Degree Days 11    
Growing Degree Days 4 (Base 50)    
Moisture  
Dew Point 38 °F    
Average Humidity 59    
Maximum Humidity 81    
Minimum Humidity 34    
Precipitation  
Precipitation 0.00 in - - ()
Sea Level Pressure  
Sea Level Pressure 30.00 in    
Wind  
Wind Speed 9 mph (NNW)    
Max Wind Speed 20 mph    
Max Gust Speed 26 mph    
Visibility 10 miles    
Events Rain    
Averages and records for this station are not official NWS values.
T = Trace of Precipitation, MM = Missing Value Source: NWS Daily Summary

Daily Weather History Graph

Daily Weather History Graph

Search for Another Location

Airport:

Trip Planner

Search our weather history database for the weather conditions in past years. The results will help you decide how hot, cold, wet, or windy it might be!

Date:

Astronomy

Oct. 28, 2012 Rise Set
Actual Time 7:05 AM CDT 5:59 PM CDT
Civil Twilight 6:39 AM CDT 6:25 PM CDT
Nautical Twilight 6:10 AM CDT 6:55 PM CDT
Astronomical Twilight 5:41 AM CDT 7:24 PM CDT
Moon 5:17 PM CDT (10/28) 5:59 AM CDT (10/28)
Length of Visible Light 11h 45m
Length of Day
10h 54m
Waxing Gibbous, 99% of the Moon is Illuminated
Oct 28
Waxing Gibbous
Oct 29
Full
Nov 6
Last Quarter
Nov 13
New
Nov 20
First Quarter

Hourly Weather History & Observations

Time (CDT) Temp. Windchill Dew Point Humidity Pressure Visibility Wind Dir Wind Speed Gust Speed Precip Events Conditions
12:15 AM 51.8 °F - 44.6 °F 76% 29.96 in 10.0 mi NNW 6.9 mph - N/A Rain Light Rain
12:35 AM 51.8 °F - 44.6 °F 76% 29.96 in 10.0 mi NNW 5.8 mph - N/A Rain Light Rain
12:55 AM 51.8 °F - 44.6 °F 76% 29.96 in 10.0 mi NNW 6.9 mph - N/A   Mostly Cloudy
1:35 AM 51.8 °F - 42.8 °F 71% 29.95 in 10.0 mi NNW 6.9 mph - N/A Rain Light Rain
1:55 AM 51.8 °F - 42.8 °F 71% 29.96 in 10.0 mi NNW 6.9 mph - N/A   Scattered Clouds
2:15 AM 51.8 °F - 42.8 °F 71% 29.95 in 10.0 mi NNW 6.9 mph - N/A Rain Light Rain
2:55 AM 51.8 °F - 42.8 °F 71% 29.96 in 10.0 mi NNW 9.2 mph - N/A Rain Light Rain
3:15 AM 51.8 °F - 42.8 °F 71% 29.95 in 10.0 mi NNW 10.4 mph 17.3 mph N/A Rain Light Rain
3:35 AM 51.8 °F - 42.8 °F 71% 29.95 in 10.0 mi North 6.9 mph - N/A   Scattered Clouds
3:55 AM 51.8 °F - 41.0 °F 67% 29.95 in 10.0 mi North 5.8 mph - N/A   Mostly Cloudy
4:15 AM 51.8 °F - 41.0 °F 67% 29.95 in 10.0 mi NNW 6.9 mph - N/A   Scattered Clouds
4:35 AM 51.8 °F - 39.2 °F 62% 29.95 in 10.0 mi NNW 6.9 mph - N/A   Scattered Clouds
4:55 AM 51.8 °F - 39.2 °F 62% 29.96 in 10.0 mi NNW 8.1 mph - N/A Rain Light Rain
5:15 AM 50.0 °F - 39.2 °F 66% 29.95 in 10.0 mi NNW 5.8 mph - N/A   Scattered Clouds
5:35 AM 48.2 °F - 39.2 °F 71% 29.96 in 10.0 mi NW 6.9 mph - N/A   Mostly Cloudy
5:55 AM 48.2 °F - 39.2 °F 71% 29.96 in 10.0 mi NW 5.8 mph - N/A Rain Light Rain
6:15 AM 46.4 °F 42.9 °F 39.2 °F 76% 29.96 in 10.0 mi NW 6.9 mph - N/A   Clear
6:35 AM 46.4 °F 43.5 °F 39.2 °F 76% 29.97 in 10.0 mi WNW 5.8 mph - N/A   Clear
6:55 AM 44.6 °F 40.7 °F 39.2 °F 81% 29.97 in 10.0 mi NW 6.9 mph - N/A Rain Light Rain
7:15 AM 44.6 °F 39.2 °F 39.2 °F 81% 29.98 in 10.0 mi NW 10.4 mph - N/A Rain Light Rain
7:35 AM 46.4 °F 41.5 °F 37.4 °F 71% 29.99 in 10.0 mi NW 10.4 mph 16.1 mph N/A Rain Light Rain
7:55 AM 46.4 °F 41.9 °F 39.2 °F 76% 30.00 in 10.0 mi NW 9.2 mph - N/A   Mostly Cloudy
8:15 AM 48.2 °F - 39.2 °F 71% 30.00 in 10.0 mi NNW 10.4 mph - N/A Rain Light Rain
8:35 AM 48.2 °F - 39.2 °F 71% 30.00 in 10.0 mi NNW 8.1 mph - N/A   Overcast
8:55 AM 50.0 °F - 39.2 °F 66% 30.00 in 10.0 mi NNW 11.5 mph - N/A Rain Light Rain
9:15 AM 50.0 °F - 39.2 °F 66% 30.00 in 10.0 mi NNW 10.4 mph 17.3 mph N/A   Overcast
9:35 AM 51.8 °F - 39.2 °F 62% 30.01 in 10.0 mi North 12.7 mph 17.3 mph N/A Rain Light Rain
9:55 AM 51.8 °F - 39.2 °F 62% 30.01 in 10.0 mi NNW 9.2 mph - N/A   Mostly Cloudy
10:15 AM 53.6 °F - 39.2 °F 58% 30.01 in 10.0 mi NNW 15.0 mph 18.4 mph N/A   Mostly Cloudy
10:35 AM 55.4 °F - 39.2 °F 54% 30.01 in 10.0 mi North 10.4 mph - N/A   Mostly Cloudy
11:15 AM 55.4 °F - 39.2 °F 54% 30.01 in 10.0 mi North 12.7 mph - N/A Rain Light Rain
11:35 AM 57.2 °F - 41.0 °F 55% 30.01 in 10.0 mi North 11.5 mph 18.4 mph N/A   Clear
11:55 AM 59.0 °F - 42.8 °F 55% 30.01 in 10.0 mi North 13.8 mph 19.6 mph N/A   Scattered Clouds
12:15 PM 57.2 °F - 42.8 °F 59% 30.01 in 10.0 mi NNW 15.0 mph 20.7 mph N/A   Mostly Cloudy
12:35 PM 60.8 °F - 42.8 °F 52% 30.01 in 10.0 mi North 11.5 mph 24.2 mph N/A   Mostly Cloudy
12:55 PM 59.0 °F - 42.8 °F 55% 30.01 in 10.0 mi NNW 12.7 mph 20.7 mph N/A   Mostly Cloudy
1:15 PM 60.8 °F - 41.0 °F 48% 30.01 in 10.0 mi North 10.4 mph 20.7 mph N/A   Scattered Clouds
1:35 PM 60.8 °F - 39.2 °F 45% 30.00 in 10.0 mi North 16.1 mph 19.6 mph N/A   Partly Cloudy
1:55 PM 62.6 °F - 39.2 °F 42% 30.00 in 10.0 mi North 11.5 mph 19.6 mph N/A   Clear
2:15 PM 62.6 °F - 37.4 °F 39% 29.99 in 10.0 mi North 11.5 mph 19.6 mph N/A   Clear
2:35 PM 64.4 °F - 37.4 °F 37% 29.98 in 10.0 mi NNW 13.8 mph 17.3 mph N/A   Clear
2:55 PM 62.6 °F - 35.6 °F 37% 29.98 in 10.0 mi NNW 13.8 mph 19.6 mph N/A   Clear
3:15 PM 62.6 °F - 35.6 °F 37% 29.98 in 10.0 mi North 10.4 mph 18.4 mph N/A   Clear
3:35 PM 62.6 °F - 35.6 °F 37% 29.98 in 10.0 mi NW 19.6 mph 26.5 mph N/A   Clear
3:55 PM 62.6 °F - 33.8 °F 34% 29.98 in 10.0 mi NNW 15.0 mph 23.0 mph N/A   Clear
4:15 PM 62.6 °F - 33.8 °F 34% 29.98 in 10.0 mi North 11.5 mph 17.3 mph N/A   Clear
4:35 PM 62.6 °F - 33.8 °F 34% 29.99 in 10.0 mi NNW 13.8 mph 19.6 mph N/A   Clear
4:55 PM 60.8 °F - 33.8 °F 36% 29.99 in 10.0 mi North 10.4 mph 20.7 mph N/A   Clear
5:15 PM 60.8 °F - 35.6 °F 39% 29.99 in 10.0 mi NW 8.1 mph - N/A   Clear
5:35 PM 57.2 °F - 33.8 °F 41% 30.00 in 10.0 mi NNW 9.2 mph 21.9 mph N/A   Clear
5:55 PM 55.4 °F - 33.8 °F 44% 30.00 in 10.0 mi NW 6.9 mph - N/A   Clear
6:15 PM 53.6 °F - 35.6 °F 51% 30.00 in 10.0 mi NW 6.9 mph - N/A   Clear
6:35 PM 53.6 °F - 35.6 °F 51% 30.01 in 10.0 mi NW 6.9 mph - N/A   Clear
6:55 PM 51.8 °F - 35.6 °F 54% 30.02 in 10.0 mi NW 6.9 mph - N/A   Clear
7:15 PM 51.8 °F - 35.6 °F 54% 30.03 in 10.0 mi NW 4.6 mph - N/A Rain Light Rain
7:35 PM 50.0 °F - 35.6 °F 58% 30.03 in 10.0 mi NW 6.9 mph - N/A Rain Light Rain
7:55 PM 50.0 °F - 35.6 °F 58% 30.03 in 10.0 mi NW 8.1 mph - N/A Rain Light Rain
8:15 PM 50.0 °F - 33.8 °F 54% 30.04 in 10.0 mi NW 6.9 mph - N/A Rain Light Rain
8:55 PM 46.4 °F 43.5 °F 35.6 °F 66% 30.05 in 10.0 mi WNW 5.8 mph - N/A Rain Light Rain
9:55 PM 46.4 °F 43.5 °F 33.8 °F 62% 30.06 in 10.0 mi NW 5.8 mph - N/A Rain Light Rain
10:15 PM 46.4 °F 42.9 °F 33.8 °F 62% 30.06 in 10.0 mi NNW 6.9 mph - N/A Rain Light Rain
10:35 PM 48.2 °F - 32.0 °F 54% 30.07 in 10.0 mi NNW 5.8 mph - N/A Rain Light Rain
10:55 PM 46.4 °F 42.9 °F 33.8 °F 62% 30.07 in 10.0 mi NNW 6.9 mph - N/A Rain Light Rain
11:15 PM 46.4 °F 43.5 °F 32.0 °F 57% 30.07 in 10.0 mi North 5.8 mph - N/A Rain Light Rain
11:35 PM 46.4 °F 44.3 °F 32.0 °F 57% 30.07 in 10.0 mi North 4.6 mph - N/A Rain Light Rain